[[{"header":{"parameterUnit":"m.s-1","parameterCategory":1,"la1":30.2991,"la2":30.254,"lo1":-89.0895,"lo2":-89.0444,"dy":0.0017,"dx":0.0017,"nx":28,"ny":28,"refTime":"2024-04-07T21:00:00:Z","depth":0,"parameterNumber":2,"parameterNumberName":"U-component_of_WINDS"},"data":[0,0,0,0,0,0,0,0,0,0,0,0,0,0,0,0,0,0,0,0,0,0,0,0,0,0,0,0,0,0,0,0,0,0,0,0,0,0,0,0,0,0,0,0,0,0,0,0,0,0,0,0,0,0,0,0,0,0,-5.2846,-5.2847,0,-5.288,-5.288,-5.2881,-5.2813,-5.2811,-5.2809,-5.2807,-5.2837,-5.284,-5.2843,0,0,0,0,0,0,0,0,0,0,0,0,0,-5.272,-5.2723,-5.2846,-5.2847,-5.2847,-5.288,-5.288,-5.2881,-5.2814,-5.2811,-5.2808,-5.2806,-5.2836,-5.284,-5.2843,0,0,0,0,0,0,0,0,0,0,0,0,0,-5.2766,-5.2724,-5.2846,-5.2818,-5.2816,-5.288,-5.288,-5.2881,-5.2814,-5.2811,-5.2808,-5.2805,-5.2835,-5.2839,-5.2843,-5.2936,0,0,-5.2856,-5.2858,0,0,0,0,0,0,0,0,-5.2764,-5.2771,-5.2822,-5.282,-5.2817,-5.2839,-5.2847,-5.2899,-5.2815,-5.2815,-5.2807,-5.2803,-5.284,-5.2844,-5.2857,-5.2937,-5.2938,-5.2857,-5.2859,-5.2861,-5.2862,0,0,0,0,0,0,0,-5.2761,-5.2769,-5.2859,-5.2822,-5.282,-5.2802,-5.2805,-5.2856,-5.2845,-5.2814,-5.281,-5.2815,-5.2838,-5.2853,-5.2857,-5.2939,-5.2857,-5.2861,-5.2863,-5.2865,-5.3094,-5.3098,0,0,0,0,0,0,-5.2762,-5.2767,-5.2858,-5.286,-5.2782,-5.2807,-5.281,-5.2835,-5.2845,-5.2843,-5.2818,-5.2811,-5.2848,-5.2852,-5.2858,-5.2965,-5.2861,-5.2865,-5.2868,-5.3091,-5.3095,-5.3099,0,0,0,0,0,0,-5.2759,-5.2771,-5.2857,-5.2813,-5.2822,-5.2813,-5.2841,-5.2838,-5.2852,-5.2847,-5.2844,-5.2835,-5.2845,-5.2852,-5.2917,-5.2965,-5.2867,-5.2871,-5.3087,-5.3092,-5.3097,-5.3181,0,0,0,0,0,0,-5.2756,-5.277,-5.2806,-5.2814,-5.2825,-5.2916,-5.2845,-5.2841,-5.2861,-5.2853,-5.2863,-5.2861,-5.2843,-5.2911,-5.2921,-5.2969,-5.2874,-5.3082,-5.3089,-5.3095,-5.3173,-5.3188,-5.3201,0,0,0,0,0,-5.2752,-5.2827,-5.2808,-5.2819,-5.287,-5.2919,-5.2925,-5.2904,-5.2865,-5.29,-5.2896,-5.2861,-5.2959,-5.2918,-5.2929,-5.2979,-5.3079,-5.3087,-5.3095,-5.3167,-5.3185,-5.32,0,0,0,0,0,0,-5.2823,-5.2828,-5.2806,-5.2887,-5.2904,-5.2908,-5.2951,-5.2924,-5.2951,-5.2943,-5.2915,-5.2917,-5.2987,-5.299,-5.2944,-5.3068,-5.3012,-5.3023,-5.3063,-5.308,-5.3094,-5.309,-5.2878,0,0,0,0,0,-5.2849,-5.2891,-5.2892,-5.2963,-5.2972,-5.2961,-5.2982,-5.2965,-5.298,-5.2986,-5.2987,-5.3002,-5.3036,-5.3059,-5.309,-5.3175,-5.3174,-5.3215,-5.3228,-5.3239,-5.3248,-5.3291,-5.3308,-5.3125,-5.3125,-5.3125,0,0,-5.2901,-5.2909,-5.2937,-5.2977,-5.2988,-5.303,-5.2967,-5.3014,-5.3044,-5.2992,-5.3053,-5.3055,-5.307,-5.3144,-5.3177,-5.3149,-5.3299,-5.325,-5.3259,-5.3261,-5.3301,-5.3318,-5.3334,-5.313,-5.3129,-5.3129,0,0,-5.3018,-5.3029,-5.3089,-5.3101,-5.3119,-5.3111,-5.3125,-5.3134,-5.3134,-5.3195,-5.3156,-5.3192,-5.3252,-5.3263,-5.3277,-5.34,-5.3367,-5.3411,-5.3481,-5.3523,-5.3538,-5.355,-5.3591,-5.3607,-5.342,-5.342,-5.342,0,-5.308,-5.3143,-5.3122,-5.3172,-5.3191,-5.3148,-5.3207,-5.322,-5.3246,-5.3259,-5.3228,-5.3302,-5.3309,-5.3385,-5.3415,-5.3428,-5.3442,-5.3408,-5.3538,-5.355,-5.3561,-5.36,-5.3616,-5.3425,-5.3424,-5.3424,-5.3423,0,-5.3218,-5.3262,-5.3308,-5.3336,-5.336,-5.3414,-5.3401,-5.3427,-5.3408,-5.3403,-5.3466,-5.3473,-5.3504,-5.3522,-5.3504,-5.3595,-5.3577,-5.3543,-5.3485,-5.3584,-5.362,-5.3635,-5.3432,-5.343,-5.3429,-5.3428,0,0,-5.3377,-5.3395,-5.3412,-5.3423,-5.344,-5.3473,-5.3526,-5.3558,-5.358,-5.36,-5.3642,-5.3694,-5.3662,-5.3678,-5.3661,-5.3699,-5.3793,-5.3659,-5.3659,-5.3681,-5.3892,-5.3916,-5.3934,-5.3773,-5.3776,-5.3778,-5.389,0,-5.3491,-5.3582,-5.3565,-5.3653,-5.3693,-5.3654,-5.3699,-5.3713,-5.3711,-5.3743,-5.3739,-5.3776,-5.3732,-5.3741,-5.3777,-5.3774,-5.3834,-5.3766,-5.3809,-5.3811,-5.3803,-5.3953,-5.3978,-5.4083,-5.3904,-5.3906,-5.3908,0,-5.3635,-5.3662,-5.3754,-5.3764,-5.378,-5.3821,-5.3849,-5.3881,-5.3897,-5.3892,-5.3911,-5.3887,-5.3937,-5.3882,-5.395,-5.3904,-5.392,-5.3922,-5.3925,-5.3926,-5.3863,-5.3955,-5.4116,-5.4131,-5.3931,-5.3929,-5.3927,0,-5.3739,-5.3798,-5.3861,-5.3873,-5.3887,-5.3916,-5.3923,-5.3936,-5.3956,-5.3981,-5.3993,-5.4023,-5.4038,-5.4061,-5.4045,-5.4007,-5.4115,-5.4059,-5.4111,-5.4111,-5.4133,-5.4131,-5.4296,-5.4149,-5.4149,-5.4148,-5.4148,0,-5.3866,-5.3923,-5.3908,-5.3946,-5.4009,-5.3989,-5.4051,-5.4054,-5.4065,-5.4102,-5.407,-5.4105,-5.4084,-5.4116,-5.4105,-5.4161,-5.4169,-5.4165,-5.4161,-5.4167,-5.4167,-5.4175,-5.4166,-5.4153,-5.4152,-5.4151,-5.415,0,-5.3991,-5.3984,-5.4049,-5.4058,-5.4061,-5.4107,-5.4114,-5.4149,-5.4145,-5.4191,-5.4201,-5.4194,-5.4231,-5.4218,-5.4258,-5.425,-5.4322,-5.4309,-5.4316,-5.4312,-5.4364,-5.4358,-5.4538,-5.4559,-5.4401,-5.4402,-5.4404,0,-5.4071,-5.4114,-5.4128,-5.4152,-5.4161,-5.4199,-5.422,-5.4203,-5.4225,-5.4247,-5.4279,-5.4313,-5.434,-5.4401,-5.4398,-5.4428,-5.4414,-5.4475,-5.4418,-5.4422,-5.4411,-5.4408,-5.4411,-5.4485,-5.4487,-5.4489,-5.449,0,-5.4212,-5.4207,-5.4239,-5.427,-5.4297,-5.432,-5.434,-5.4361,-5.4345,-5.4372,-5.441,-5.4431,-5.4472,-5.4506,-5.4533,-5.4538,-5.4511,-5.4509,-5.4521,-5.4526,-5.4527,-5.4525,-5.4344,-5.4504,-5.4502,-5.4501,-5.45,-5.45,-5.4315,-5.4352,-5.4368,-5.4404,-5.4418,-5.4438,-5.4471,-5.4472,-5.4504,-5.4536,-5.4524,-5.4568,-5.4582,-5.4615,-5.4625,-5.4658,-5.4634,-5.4654,-5.4658,-5.4662,-5.4668,-5.4525,-5.4663,-5.4663,-5.4662,-5.4662,-5.4662,0,-5.4453,-5.4462,-5.4496,-5.4526,-5.4555,-5.453,-5.4551,-5.4576,-5.4615,-5.4631,-5.4658,-5.4702,-5.4735,-5.4736,-5.4766,-5.4792,-5.478,-5.48,-5.4796,-5.4798,-5.4689,-5.4673,-5.4809,-5.4809,-5.4809,-5.4809,-5.4809,-5.4809,-5.4528,-5.4587,-5.4584,-5.465,-5.4657,-5.4701,-5.4715,-5.4732,-5.4745,-5.4795,-5.4823,-5.4825,-5.4834,-5.4865,-5.4894,-5.4893,-5.4904,-5.4929,-5.4923,-5.482,-5.4806,-5.4792,-5.4777,-5.4932,-5.4933,-5.5029,-5.503,-5.5031]},{"header":{"parameterUnit":"m.s-1","parameterCategory":1,"la1":30.2991,"la2":30.254,"lo1":-89.0895,"lo2":-89.0444,"dy":0.0017,"dx":0.0017,"nx":28,"ny":28,"refTime":"2024-04-07T21:00:00:Z","depth":0,"parameterNumber":3,"parameterNumberName":"V-component_of_WINDS"},"data":[0,0,0,0,0,0,0,0,0,0,0,0,0,0,0,0,0,0,0,0,0,0,0,0,0,0,0,0,0,0,0,0,0,0,0,0,0,0,0,0,0,0,0,0,0,0,0,0,0,0,0,0,0,0,0,0,0,0,3.9351,3.9353,0,3.9504,3.9506,3.9508,3.9528,3.9527,3.9525,3.9524,3.9677,3.9683,3.9688,0,0,0,0,0,0,0,0,0,0,0,0,0,3.9077,3.9081,3.9351,3.9353,3.9355,3.9504,3.9506,3.9508,3.9528,3.9527,3.9525,3.9523,3.9676,3.9682,3.9688,0,0,0,0,0,0,0,0,0,0,0,0,0,3.9209,3.9083,3.9351,3.9383,3.9388,3.9503,3.9506,3.9509,3.9529,3.9527,3.9525,3.9523,3.9673,3.9681,3.9689,3.9783,0,0,3.9714,3.9718,0,0,0,0,0,0,0,0,3.9202,3.9219,3.9376,3.9381,3.9386,3.9495,3.9465,3.96,3.9529,3.9475,3.9524,3.9521,3.9618,3.9631,3.9664,3.979,3.9796,3.9715,3.972,3.9723,3.9726,0,0,0,0,0,0,0,3.9192,3.9213,3.9412,3.9379,3.9385,3.939,3.9406,3.9491,3.9557,3.948,3.9482,3.95,3.962,3.9656,3.9668,3.9799,3.9715,3.9722,3.9727,3.973,4.0013,4.0015,0,0,0,0,0,0,3.9177,3.9205,3.9407,3.9416,3.9287,3.9397,3.9415,3.9462,3.9556,3.9568,3.9501,3.95,3.9643,3.9658,3.9673,3.9792,3.9723,3.9731,3.9736,4.001,4.0013,4.0016,0,0,0,0,0,0,3.9171,3.9195,3.94,3.9311,3.9338,3.9404,3.9456,3.9466,3.9502,3.9572,3.9584,3.9526,3.9642,3.9662,3.9756,3.9797,3.9735,3.9742,4.0007,4.0011,4.0015,4.0027,0,0,0,0,0,0,3.9164,3.9193,3.9229,3.9312,3.9342,3.9481,3.9459,3.9471,3.9517,3.9516,3.9598,3.961,3.9642,3.9744,3.9765,3.9807,3.9748,4.0004,4.0009,4.0013,4.0023,4.0031,4.0037,0,0,0,0,0,3.9154,3.9225,3.9231,3.9255,3.9389,3.9483,3.9501,3.9538,3.952,3.9557,3.9602,3.9607,3.9789,3.9754,3.9777,3.9822,4.0001,4.0007,4.0013,4.002,4.0029,4.0037,0,0,0,0,0,0,3.9142,3.9236,3.9243,3.9343,3.9406,3.9487,3.9534,3.9546,3.9613,3.961,3.9652,3.967,3.9763,3.9802,3.9761,3.992,3.9894,3.9904,3.9891,3.99,3.9907,3.9896,3.9755,0,0,0,0,0,3.9152,3.9222,3.9299,3.938,3.9411,3.9467,3.951,3.9533,3.9599,3.9625,3.9677,3.974,3.9812,3.9858,3.9927,4.0029,4.0048,4.0072,4.0079,4.0084,4.0093,4.0153,4.0165,4.0036,4.0035,4.0035,0,0,3.9172,3.9231,3.9272,3.9379,3.943,3.9502,3.9489,3.9564,3.9619,3.9636,3.973,3.977,3.9843,3.9943,3.9989,3.9978,4.0134,4.0092,4.0096,4.0102,4.0161,4.0173,4.0184,4.004,4.0039,4.0038,0,0,3.9245,3.9296,3.9371,3.9423,3.9501,3.9539,3.9557,3.9638,3.9666,3.9761,3.9777,3.9841,3.9963,4.0016,4.0058,4.0156,4.0164,4.0177,4.0214,4.0272,4.0282,4.0292,4.0329,4.0341,4.0186,4.0186,4.0186,0,3.9259,3.9368,3.9407,3.9484,3.9532,3.9553,3.963,3.9678,3.9774,3.9807,3.9793,3.995,4.0,4.0114,4.0138,4.0171,4.0194,4.0168,4.0278,4.0287,4.0297,4.0333,4.0346,4.0187,4.0187,4.0187,4.0187,0,3.9384,3.9459,3.951,3.9606,3.9659,3.9735,3.9786,3.9835,3.9855,3.9894,3.9992,4.0054,4.0138,4.0167,4.0185,4.0284,4.0276,4.0269,4.0244,4.031,4.0345,4.0358,4.0189,4.0188,4.0188,4.0188,0,0,3.9452,3.9571,3.9589,3.9635,3.9724,3.9783,3.9861,3.9946,3.9988,4.0054,4.0122,4.0227,4.0223,4.0271,4.0296,4.0347,4.0424,4.0335,4.0337,4.0351,4.054,4.0546,4.0561,4.043,4.0432,4.0434,4.0535,0,3.9538,3.9678,3.9718,3.9837,3.9909,3.9932,4.0,4.0063,4.0102,4.0169,4.0212,4.0287,4.0275,4.0305,4.0356,4.0404,4.0463,4.0397,4.0494,4.0497,4.0477,4.0579,4.0584,4.0676,4.0549,4.0551,4.0553,0,3.9655,3.9727,3.9854,3.9938,3.997,4.0031,4.0113,4.0176,4.0249,4.0274,4.033,4.0352,4.0435,4.0405,4.0522,4.0476,4.0518,4.0548,4.0552,4.0564,4.0529,4.0595,4.0706,4.072,4.0574,4.0572,4.0571,0,3.9696,3.9824,3.9918,3.9955,4.0055,4.0098,4.0141,4.0211,4.0261,4.0332,4.0366,4.0445,4.0489,4.055,4.0593,4.0567,4.0707,4.068,4.0732,4.0731,4.0761,4.0758,4.0882,4.0785,4.0785,4.0784,4.0784,0,3.9788,3.9866,3.9938,3.9996,4.0084,4.0129,4.0215,4.0259,4.0322,4.039,4.0413,4.0476,4.0527,4.0597,4.0631,4.0724,4.0743,4.0767,4.0775,4.0766,4.0763,4.0795,4.079,4.0788,4.0787,4.0786,4.0786,0,3.9849,3.99,4.0005,4.0091,4.0115,4.0177,4.0251,4.0309,4.035,4.0435,4.0458,4.0522,4.0606,4.0655,4.076,4.0783,4.0887,4.0891,4.0863,4.0867,4.0917,4.0913,4.1066,4.109,4.0975,4.0976,4.0977,0,3.9905,3.9966,4.006,4.0108,4.0153,4.0228,4.028,4.0327,4.038,4.0469,4.0516,4.0602,4.0673,4.0806,4.0863,4.0944,4.0952,4.1,4.0964,4.0954,4.0956,4.0952,4.096,4.1006,4.1008,4.1008,4.1009,0,4.0,4.0024,4.0098,4.0182,4.0244,4.0311,4.0379,4.0416,4.0475,4.0533,4.0621,4.0676,4.0785,4.0871,4.0958,4.1002,4.1017,4.102,4.1037,4.1029,4.1011,4.1024,4.0882,4.1016,4.1016,4.1015,4.1015,4.1014,4.0062,4.0119,4.0195,4.0278,4.0334,4.0398,4.0458,4.0508,4.0582,4.0676,4.0699,4.0791,4.0865,4.0983,4.103,4.1104,4.1095,4.1118,4.1125,4.1131,4.1134,4.0999,4.1119,4.1119,4.1119,4.1119,4.1118,0,4.0161,4.0212,4.0288,4.0383,4.0449,4.0458,4.0534,4.0588,4.067,4.0738,4.0809,4.0911,4.0995,4.1059,4.1146,4.1192,4.1201,4.1214,4.1211,4.1222,4.1135,4.1113,4.1205,4.1205,4.1205,4.1205,4.1205,4.1205,4.022,4.0318,4.0351,4.0477,4.0527,4.062,4.0663,4.0722,4.0778,4.0891,4.0962,4.1004,4.1071,4.1163,4.1242,4.1258,4.129,4.1302,4.132,4.1237,4.1228,4.1219,4.1199,4.1308,4.1308,4.1402,4.1403,4.1403]}]]